Time,TemperatureF,DewpointF,PressureIn,WindDirection,WindDirectionDegrees,WindSpeedMPH,WindSpeedGustMPH,Humidity,HourlyPrecipIn,Conditions,Clouds,dailyrainin,SoftwareType,DateUTC
2013-02-02 00:03:00,54.3,41.1,30.11,NE,45,1.2,0.0,61,0.00,CLR,FEW,0.00,WeatherDisplay:10.37,2013-02-02 06:03:00,
2013-02-02 00:08:00,54.3,41.6,30.11,NE,45,0.0,0.0,62,0.00,CLR,FEW,0.00,WeatherDisplay:10.37,2013-02-02 06:08:00,
2013-02-02 00:13:00,54.3,41.6,30.11,NE,45,1.2,0.0,62,0.00,CLR,FEW,0.00,WeatherDisplay:10.37,2013-02-02 06:13:00,
2013-02-02 00:18:00,54.1,41.8,30.10,NE,45,1.2,0.0,63,0.00,CLR,FEW,0.00,WeatherDisplay:10.37,2013-02-02 06:18:00,
2013-02-02 00:23:00,54.1,42.2,30.10,SE,135,2.3,0.0,64,0.00,CLR,FEW,0.00,WeatherDisplay:10.37,2013-02-02 06:23:00,
2013-02-02 00:28:00,54.1,42.2,30.10,SE,135,0.0,0.0,64,0.00,CLR,FEW,0.00,WeatherDisplay:10.37,2013-02-02 06:28:00,
2013-02-02 00:33:00,54.1,42.6,30.10,East,90,3.5,0.0,65,0.00,CLR,FEW,0.00,WeatherDisplay:10.37,2013-02-02 06:33:00,
2013-02-02 00:38:00,54.1,43.0,30.10,East,90,1.2,0.0,66,0.00,CLR,FEW,0.00,WeatherDisplay:10.37,2013-02-02 06:38:00,
2013-02-02 00:43:00,54.3,42.8,30.10,NE,45,0.0,0.0,65,0.00,CLR,FEW,0.00,WeatherDisplay:10.37,2013-02-02 06:43:00,
2013-02-02 00:48:00,54.1,42.6,30.10,NE,45,0.0,0.0,65,0.00,CLR,FEW,0.00,WeatherDisplay:10.37,2013-02-02 06:48:00,
2013-02-02 00:53:00,54.0,42.9,30.10,NE,45,0.0,0.0,66,0.00,CLR,FEW,0.00,WeatherDisplay:10.37,2013-02-02 06:53:00,
2013-02-02 00:58:00,53.8,42.7,30.10,NE,45,0.0,0.0,66,0.00,CLR,FEW,0.00,WeatherDisplay:10.37,2013-02-02 06:58:00,
2013-02-02 01:03:00,53.6,42.5,30.10,NE,45,0.0,0.0,66,0.00,CLR,FEW,0.00,WeatherDisplay:10.37,2013-02-02 07:03:00,
2013-02-02 01:08:00,53.4,42.7,30.10,NE,45,0.0,0.0,67,0.00,CLR,FEW,0.00,WeatherDisplay:10.37,2013-02-02 07:08:00,
2013-02-02 01:13:00,53.2,42.9,30.09,NE,45,0.0,0.0,68,0.00,CLR,FEW,0.00,WeatherDisplay:10.37,2013-02-02 07:13:00,
2013-02-02 01:18:00,53.1,43.2,30.09,ENE,68,0.0,0.0,69,0.00,CLR,FEW,0.00,WeatherDisplay:10.37,2013-02-02 07:18:00,
2013-02-02 01:23:00,53.1,43.5,30.09,ENE,68,0.0,0.0,70,0.00,CLR,FEW,0.00,WeatherDisplay:10.37,2013-02-02 07:23:00,
2013-02-02 01:28:00,53.1,43.5,30.09,ENE,68,0.0,0.0,70,0.00,CLR,FEW,0.00,WeatherDisplay:10.37,2013-02-02 07:28:00,
2013-02-02 01:33:00,52.9,43.7,30.09,ENE,68,0.0,0.0,71,0.00,CLR,FEW,0.00,WeatherDisplay:10.37,2013-02-02 07:33:00,
2013-02-02 01:38:00,52.9,44.1,30.09,NE,45,1.2,0.0,72,0.00,CLR,FEW,0.00,WeatherDisplay:10.37,2013-02-02 07:38:00,
2013-02-02 01:43:00,53.1,44.6,30.09,East,90,2.3,0.0,73,0.00,CLR,FEW,0.00,WeatherDisplay:10.37,2013-02-02 07:43:00,
2013-02-02 01:48:00,53.2,44.4,30.09,East,90,0.0,0.0,72,0.00,CLR,FEW,0.00,WeatherDisplay:10.37,2013-02-02 07:48:00,
2013-02-02 01:53:00,53.2,44.4,30.10,East,90,0.0,0.0,72,0.00,CLR,FEW,0.00,WeatherDisplay:10.37,2013-02-02 07:53:00,
2013-02-02 01:58:00,53.2,44.8,30.09,East,90,0.0,0.0,73,0.00,CLR,FEW,0.00,WeatherDisplay:10.37,2013-02-02 07:58:00,
2013-02-02 02:05:00,53.1,44.6,30.10,East,90,0.0,0.0,73,0.00,CLR,FEW,0.00,WeatherDisplay:10.37,2013-02-02 08:05:00,
2013-02-02 02:10:00,53.1,44.6,30.10,East,90,0.0,0.0,73,0.00,CLR,FEW,0.00,WeatherDisplay:10.37,2013-02-02 08:10:00,
2013-02-02 02:15:00,52.9,44.5,30.10,East,90,0.0,0.0,73,0.00,CLR,FEW,0.00,WeatherDisplay:10.37,2013-02-02 08:15:00,
2013-02-02 02:20:00,52.7,44.6,30.09,East,90,0.0,0.0,74,0.00,CLR,FEW,0.00,WeatherDisplay:10.37,2013-02-02 08:20:00,
2013-02-02 02:25:00,52.7,44.6,30.09,East,90,0.0,0.0,74,0.00,CLR,FEW,0.00,WeatherDisplay:10.37,2013-02-02 08:25:00,
2013-02-02 02:30:00,52.7,45.0,30.09,East,90,0.0,0.0,75,0.00,CLR,FEW,0.00,WeatherDisplay:10.37,2013-02-02 08:30:00,
2013-02-02 02:35:00,52.5,44.8,30.09,East,90,0.0,0.0,75,0.00,CLR,FEW,0.00,WeatherDisplay:10.37,2013-02-02 08:35:00,
2013-02-02 02:40:00,52.3,44.6,30.09,East,90,0.0,0.0,75,0.00,CLR,FEW,0.00,WeatherDisplay:10.37,2013-02-02 08:40:00,
2013-02-02 02:45:00,52.3,45.0,30.09,East,90,0.0,0.0,76,0.00,CLR,FEW,0.00,WeatherDisplay:10.37,2013-02-02 08:45:00,
2013-02-02 02:50:00,52.3,45.0,30.09,East,90,0.0,0.0,76,0.00,CLR,FEW,0.00,WeatherDisplay:10.37,2013-02-02 08:50:00,
2013-02-02 02:55:00,52.3,45.0,30.09,East,90,0.0,0.0,76,0.00,CLR,FEW,0.00,WeatherDisplay:10.37,2013-02-02 08:55:00,
2013-02-02 03:00:00,52.3,45.0,30.09,East,90,1.2,0.0,76,0.00,CLR,FEW,0.00,WeatherDisplay:10.37,2013-02-02 09:00:00,
2013-02-02 03:05:00,52.2,45.2,30.09,East,90,0.0,0.0,77,0.00,CLR,FEW,0.00,WeatherDisplay:10.37,2013-02-02 09:05:00,
2013-02-02 03:10:00,52.2,45.2,30.09,East,90,0.0,0.0,77,0.00,CLR,FEW,0.00,WeatherDisplay:10.37,2013-02-02 09:10:00,
2013-02-02 03:15:00,52.2,45.2,30.09,East,90,0.0,0.0,77,0.00,CLR,FEW,0.00,WeatherDisplay:10.37,2013-02-02 09:15:00,
2013-02-02 03:20:00,52.0,45.0,30.09,East,90,0.0,0.0,77,0.00,CLR,FEW,0.00,WeatherDisplay:10.37,2013-02-02 09:20:00,
2013-02-02 03:25:00,52.0,45.3,30.09,East,90,0.0,0.0,78,0.00,CLR,FEW,0.00,WeatherDisplay:10.37,2013-02-02 09:25:00,
2013-02-02 03:30:00,51.8,45.2,30.10,East,90,0.0,0.0,78,0.00,CLR,FEW,0.00,WeatherDisplay:10.37,2013-02-02 09:30:00,
2013-02-02 03:35:00,51.8,45.2,30.10,East,90,0.0,0.0,78,0.00,CLR,FEW,0.00,WeatherDisplay:10.37,2013-02-02 09:35:00,
2013-02-02 03:40:00,51.6,45.3,30.09,East,90,0.0,0.0,79,0.00,CLR,FEW,0.00,WeatherDisplay:10.37,2013-02-02 09:40:00,
2013-02-02 03:45:00,51.4,45.1,30.10,East,90,0.0,0.0,79,0.00,CLR,FEW,0.00,WeatherDisplay:10.37,2013-02-02 09:45:00,
2013-02-02 03:50:00,51.4,45.5,30.10,East,90,1.2,0.0,80,0.00,CLR,FEW,0.00,WeatherDisplay:10.37,2013-02-02 09:50:00,
2013-02-02 03:55:00,51.3,45.3,30.09,East,90,0.0,0.0,80,0.00,CLR,FEW,0.00,WeatherDisplay:10.37,2013-02-02 09:55:00,
2013-02-02 04:00:00,51.1,44.8,30.10,East,90,1.2,0.0,79,0.00,CLR,FEW,0.00,WeatherDisplay:10.37,2013-02-02 10:00:00,
2013-02-02 04:05:00,50.7,44.8,30.10,East,90,0.0,0.0,80,0.00,CLR,FEW,0.00,WeatherDisplay:10.37,2013-02-02 10:05:00,
2013-02-02 04:10:00,50.5,44.6,30.10,East,90,1.2,0.0,80,0.00,CLR,FEW,0.00,WeatherDisplay:10.37,2013-02-02 10:10:00,
2013-02-02 04:15:00,50.2,44.2,30.10,East,90,1.2,0.0,80,0.00,CLR,FEW,0.00,WeatherDisplay:10.37,2013-02-02 10:15:00,
2013-02-02 04:20:00,50.0,44.1,30.11,East,90,0.0,0.0,80,0.00,CLR,FEW,0.00,WeatherDisplay:10.37,2013-02-02 10:20:00,
2013-02-02 04:25:00,49.6,43.7,30.11,East,90,0.0,0.0,80,0.00,CLR,FEW,0.00,WeatherDisplay:10.37,2013-02-02 10:25:00,
2013-02-02 04:30:00,49.3,43.7,30.11,East,90,1.2,0.0,81,0.00,CLR,FEW,0.00,WeatherDisplay:10.37,2013-02-02 10:30:00,
2013-02-02 04:35:00,49.3,43.7,30.10,East,90,0.0,0.0,81,0.00,CLR,FEW,0.00,WeatherDisplay:10.37,2013-02-02 10:35:00,
2013-02-02 04:40:00,49.1,43.8,30.10,East,90,0.0,0.0,82,0.00,CLR,FEW,0.00,WeatherDisplay:10.37,2013-02-02 10:40:00,
2013-02-02 04:45:00,48.9,43.7,30.10,East,90,0.0,0.0,82,0.00,CLR,FEW,0.00,WeatherDisplay:10.37,2013-02-02 10:45:00,
2013-02-02 04:50:00,48.7,43.5,30.10,East,90,0.0,0.0,82,0.00,CLR,FEW,0.00,WeatherDisplay:10.37,2013-02-02 10:50:00,
2013-02-02 04:55:00,48.7,43.8,30.10,East,90,0.0,0.0,83,0.00,CLR,FEW,0.00,WeatherDisplay:10.37,2013-02-02 10:55:00,
2013-02-02 05:00:00,48.6,43.6,30.10,East,90,0.0,0.0,83,0.00,CLR,FEW,0.00,WeatherDisplay:10.37,2013-02-02 11:00:00,
2013-02-02 05:05:00,48.6,43.6,30.10,East,90,0.0,0.0,83,0.00,CLR,FEW,0.00,WeatherDisplay:10.37,2013-02-02 11:05:00,
2013-02-02 05:10:00,48.4,43.5,30.10,East,90,0.0,0.0,83,0.00,CLR,FEW,0.00,WeatherDisplay:10.37,2013-02-02 11:10:00,
2013-02-02 05:15:00,48.2,43.3,30.10,East,90,0.0,0.0,83,0.00,CLR,FEW,0.00,WeatherDisplay:10.37,2013-02-02 11:15:00,
2013-02-02 05:20:00,48.0,43.1,30.10,East,90,0.0,0.0,83,0.00,CLR,FEW,0.00,WeatherDisplay:10.37,2013-02-02 11:20:00,
2013-02-02 05:25:00,47.8,43.2,30.10,East,90,0.0,0.0,84,0.00,CLR,FEW,0.00,WeatherDisplay:10.37,2013-02-02 11:25:00,
2013-02-02 05:30:00,47.7,43.1,30.10,East,90,0.0,0.0,84,0.00,CLR,FEW,0.00,WeatherDisplay:10.37,2013-02-02 11:30:00,
2013-02-02 05:35:00,47.5,42.9,30.10,East,90,0.0,0.0,84,0.00,CLR,FEW,0.00,WeatherDisplay:10.37,2013-02-02 11:35:00,
2013-02-02 05:40:00,47.5,43.2,30.10,East,90,0.0,0.0,85,0.00,CLR,FEW,0.00,WeatherDisplay:10.37,2013-02-02 11:40:00,
2013-02-02 05:45:00,47.3,43.0,30.10,East,90,0.0,0.0,85,0.00,CLR,FEW,0.00,WeatherDisplay:10.37,2013-02-02 11:45:00,
2013-02-02 05:50:00,47.3,43.3,30.11,East,90,0.0,0.0,86,0.00,CLR,FEW,0.00,WeatherDisplay:10.37,2013-02-02 11:50:00,
2013-02-02 05:55:00,47.3,43.3,30.10,East,90,1.2,0.0,86,0.00,CLR,FEW,0.00,WeatherDisplay:10.37,2013-02-02 11:55:00,
2013-02-02 06:00:00,47.3,43.6,30.10,East,90,1.6,1.6,87,0.00,CLR,FEW,0.00,WeatherDisplay:10.37,2013-02-02 12:00:00,
2013-02-02 06:05:00,47.3,43.6,30.11,East,90,1.2,0.0,87,0.00,CLR,FEW,0.00,WeatherDisplay:10.37,2013-02-02 12:05:00,
2013-02-02 06:10:00,47.3,43.6,30.11,East,90,2.3,2.3,87,0.00,CLR,FEW,0.00,WeatherDisplay:10.37,2013-02-02 12:10:00,
2013-02-02 06:15:00,47.3,43.6,30.11,East,90,2.3,2.3,87,0.00,CLR,FEW,0.00,WeatherDisplay:10.37,2013-02-02 12:15:00,
2013-02-02 06:20:00,47.3,43.6,30.11,East,90,1.6,1.6,87,0.00,CLR,FEW,0.00,WeatherDisplay:10.37,2013-02-02 12:20:00,
2013-02-02 06:25:00,47.3,43.9,30.11,East,90,1.2,0.0,88,0.00,CLR,FEW,0.00,WeatherDisplay:10.37,2013-02-02 12:25:00,
2013-02-02 06:30:00,47.3,43.6,30.11,East,90,1.2,0.0,87,0.00,CLR,FEW,0.00,WeatherDisplay:10.37,2013-02-02 12:30:00,
2013-02-02 06:35:00,47.1,43.7,30.11,East,90,1.2,0.0,88,0.00,CLR,FEW,0.00,WeatherDisplay:10.37,2013-02-02 12:35:00,
2013-02-02 06:40:00,47.1,43.7,30.11,East,90,1.2,0.0,88,0.00,CLR,FEW,0.00,WeatherDisplay:10.37,2013-02-02 12:40:00,
2013-02-02 06:45:00,47.1,43.7,30.11,East,90,0.0,0.0,88,0.00,CLR,FEW,0.00,WeatherDisplay:10.37,2013-02-02 12:45:00,
2013-02-02 06:50:00,47.1,43.7,30.11,East,90,1.2,0.0,88,0.00,CLR,FEW,0.00,WeatherDisplay:10.37,2013-02-02 12:50:00,
2013-02-02 06:55:00,46.9,43.6,30.12,East,90,0.0,0.0,88,0.00,CLR,FEW,0.00,WeatherDisplay:10.37,2013-02-02 12:55:00,
2013-02-02 07:00:00,46.9,43.6,30.12,East,90,0.0,0.0,88,0.00,CLR,FEW,0.00,WeatherDisplay:10.37,2013-02-02 13:00:00,
2013-02-02 07:05:00,46.8,43.4,30.12,East,90,0.0,0.0,88,0.00,CLR,FEW,0.00,WeatherDisplay:10.37,2013-02-02 13:05:00,
2013-02-02 07:10:00,46.8,43.4,30.12,East,90,0.0,0.0,88,0.00,CLR,FEW,0.00,WeatherDisplay:10.37,2013-02-02 13:10:00,
2013-02-02 07:15:00,46.6,43.2,30.12,East,90,0.0,0.0,88,0.00,CLR,FEW,0.00,WeatherDisplay:10.37,2013-02-02 13:15:00,
2013-02-02 07:21:00,46.4,43.0,30.12,East,90,0.0,0.0,88,0.00,CLR,FEW,0.00,WeatherDisplay:10.37,2013-02-02 13:21:00,
2013-02-02 07:26:00,46.2,43.2,30.13,East,90,0.0,0.0,89,0.00,CLR,FEW,0.00,WeatherDisplay:10.37,2013-02-02 13:26:00,
2013-02-02 07:31:00,46.0,43.0,30.13,East,90,0.0,0.0,89,0.00,CLR,FEW,0.00,WeatherDisplay:10.37,2013-02-02 13:31:00,
2013-02-02 07:36:00,46.0,43.0,30.13,East,90,0.0,0.0,89,0.00,CLR,FEW,0.00,WeatherDisplay:10.37,2013-02-02 13:36:00,
2013-02-02 07:41:00,45.9,42.8,30.13,East,90,0.0,0.0,89,0.00,CLR,FEW,0.00,WeatherDisplay:10.37,2013-02-02 13:41:00,
2013-02-02 07:46:00,45.9,43.1,30.13,East,90,0.0,0.0,90,0.00,CLR,FEW,0.00,WeatherDisplay:10.37,2013-02-02 13:46:00,
2013-02-02 07:51:00,45.9,43.1,30.13,East,90,0.0,0.0,90,0.00,CLR,FEW,0.00,WeatherDisplay:10.37,2013-02-02 13:51:00,
2013-02-02 07:56:00,45.9,43.1,30.13,East,90,0.0,0.0,90,0.00,CLR,FEW,0.00,WeatherDisplay:10.37,2013-02-02 13:56:00,
2013-02-02 08:01:00,45.9,43.4,30.14,East,90,0.0,0.0,91,0.00,CLR,FEW,0.00,WeatherDisplay:10.37,2013-02-02 14:01:00,
2013-02-02 08:06:00,46.2,43.7,30.14,East,90,0.0,0.0,91,0.00,CLR,FEW,0.00,WeatherDisplay:10.37,2013-02-02 14:06:00,
2013-02-02 08:11:00,46.4,43.9,30.14,East,90,0.0,0.0,91,0.00,CLR,FEW,0.00,WeatherDisplay:10.37,2013-02-02 14:11:00,
2013-02-02 08:16:00,46.8,44.6,30.14,East,90,0.0,0.0,92,0.00,CLR,FEW,0.00,WeatherDisplay:10.37,2013-02-02 14:16:00,
2013-02-02 08:21:00,47.1,44.9,30.14,East,90,1.2,0.0,92,0.00,CLR,FEW,0.00,WeatherDisplay:10.37,2013-02-02 14:21:00,
2013-02-02 08:26:00,47.8,45.6,30.14,East,90,1.6,0.0,92,0.00,CLR,FEW,0.00,WeatherDisplay:10.37,2013-02-02 14:26:00,
2013-02-02 08:31:00,48.4,46.2,30.14,East,90,0.0,0.0,92,0.00,CLR,FEW,0.00,WeatherDisplay:10.37,2013-02-02 14:31:00,
2013-02-02 08:36:00,49.1,46.9,30.15,East,90,1.2,0.0,92,0.00,CLR,FEW,0.00,WeatherDisplay:10.37,2013-02-02 14:36:00,
2013-02-02 08:41:00,49.5,46.9,30.14,East,90,1.2,0.0,91,0.00,CLR,FEW,0.00,WeatherDisplay:10.37,2013-02-02 14:41:00,
2013-02-02 08:46:00,50.4,47.5,30.14,East,90,0.0,0.0,90,0.00,CLR,FEW,0.00,WeatherDisplay:10.37,2013-02-02 14:46:00,
2013-02-02 08:51:00,50.7,47.9,30.15,East,90,1.2,0.0,90,0.00,CLR,FEW,0.00,WeatherDisplay:10.37,2013-02-02 14:51:00,
2013-02-02 08:56:00,51.6,48.5,30.15,East,90,1.2,0.0,89,0.00,CLR,FEW,0.00,WeatherDisplay:10.37,2013-02-02 14:56:00,
2013-02-02 09:01:00,52.3,49.2,30.14,East,90,1.2,0.0,89,0.00,CLR,FEW,0.00,WeatherDisplay:10.37,2013-02-02 15:01:00,
2013-02-02 09:06:00,53.4,50.0,30.15,East,90,1.6,1.6,88,0.00,CLR,FEW,0.00,WeatherDisplay:10.37,2013-02-02 15:06:00,
2013-02-02 09:11:00,54.3,50.2,30.15,East,90,1.2,0.0,86,0.00,CLR,FEW,0.00,WeatherDisplay:10.37,2013-02-02 15:11:00,
2013-02-02 09:16:00,55.0,50.3,30.15,East,90,1.6,1.6,84,0.00,CLR,FEW,0.00,WeatherDisplay:10.37,2013-02-02 15:16:00,
2013-02-02 09:21:00,55.4,50.3,30.15,East,90,1.2,0.0,83,0.00,CLR,FEW,0.00,WeatherDisplay:10.37,2013-02-02 15:21:00,
2013-02-02 09:26:00,55.9,50.5,30.15,East,90,1.2,0.0,82,0.00,CLR,FEW,0.00,WeatherDisplay:10.37,2013-02-02 15:26:00,
2013-02-02 09:31:00,56.8,51.1,30.15,East,90,1.2,0.0,81,0.00,CLR,FEW,0.00,WeatherDisplay:10.37,2013-02-02 15:31:00,
2013-02-02 09:36:00,57.4,50.9,30.16,East,90,2.3,2.3,79,0.00,CLR,FEW,0.00,WeatherDisplay:10.37,2013-02-02 15:36:00,
2013-02-02 09:41:00,57.7,50.9,30.16,East,90,2.3,0.0,78,0.00,CLR,FEW,0.00,WeatherDisplay:10.37,2013-02-02 15:41:00,
2013-02-02 09:46:00,58.3,51.4,30.15,East,90,1.6,1.6,78,0.00,CLR,FEW,0.00,WeatherDisplay:10.37,2013-02-02 15:46:00,
2013-02-02 09:51:00,58.8,51.6,30.15,East,90,1.2,0.0,77,0.00,CLR,FEW,0.00,WeatherDisplay:10.37,2013-02-02 15:51:00,
2013-02-02 09:56:00,59.4,51.8,30.16,East,90,2.3,2.3,76,0.00,CLR,FEW,0.00,WeatherDisplay:10.37,2013-02-02 15:56:00,
2013-02-02 10:01:00,59.5,51.6,30.16,East,90,2.3,2.3,75,0.00,CLR,FEW,0.00,WeatherDisplay:10.37,2013-02-02 16:01:00,
2013-02-02 10:06:00,59.7,51.8,30.15,East,90,1.6,1.6,75,0.00,CLR,FEW,0.00,WeatherDisplay:10.37,2013-02-02 16:06:00,
2013-02-02 10:11:00,59.9,51.6,30.15,East,90,2.3,2.3,74,0.00,CLR,FEW,0.00,WeatherDisplay:10.37,2013-02-02 16:11:00,
2013-02-02 10:16:00,60.1,52.1,30.16,East,90,2.3,2.3,75,0.00,CLR,FEW,0.00,WeatherDisplay:10.37,2013-02-02 16:16:00,
2013-02-02 10:21:00,60.3,51.9,30.16,West,270,3.5,3.5,74,0.00,CLR,FEW,0.00,WeatherDisplay:10.37,2013-02-02 16:21:00,
2013-02-02 10:26:00,60.3,52.3,30.15,West,270,2.3,2.3,75,0.00,CLR,FEW,0.00,WeatherDisplay:10.37,2013-02-02 16:26:00,
2013-02-02 10:31:00,60.6,52.3,30.16,NW,315,3.5,3.5,74,0.00,CLR,FEW,0.00,WeatherDisplay:10.37,2013-02-02 16:31:00,
2013-02-02 10:36:00,61.2,53.2,30.15,NW,315,3.5,3.5,75,0.00,CLR,FEW,0.00,WeatherDisplay:10.37,2013-02-02 16:36:00,
2013-02-02 10:41:00,61.5,52.8,30.15,NW,315,3.5,3.5,73,0.00,CLR,FEW,0.00,WeatherDisplay:10.37,2013-02-02 16:41:00,
2013-02-02 10:46:00,62.2,53.5,30.15,NW,315,3.5,3.5,73,0.00,CLR,FEW,0.00,WeatherDisplay:10.37,2013-02-02 16:46:00,
2013-02-02 10:51:00,62.6,53.4,30.15,West,270,1.2,1.2,72,0.00,CLR,FEW,0.00,WeatherDisplay:10.37,2013-02-02 16:51:00,
2013-02-02 10:56:00,63.1,53.6,30.15,NW,315,3.5,3.5,71,0.00,CLR,FEW,0.00,WeatherDisplay:10.37,2013-02-02 16:56:00,
2013-02-02 11:01:00,63.5,53.5,30.15,West,270,3.5,3.5,70,0.00,CLR,FEW,0.00,WeatherDisplay:10.37,2013-02-02 17:01:00,
2013-02-02 11:06:00,64.0,53.7,30.15,West,270,3.5,3.5,69,0.00,CLR,FEW,0.00,WeatherDisplay:10.37,2013-02-02 17:06:00,
2013-02-02 11:11:00,64.4,53.6,30.15,NW,315,2.3,2.3,68,0.00,CLR,FEW,0.00,WeatherDisplay:10.37,2013-02-02 17:11:00,
2013-02-02 11:16:00,65.3,54.1,30.15,West,270,3.5,3.5,67,0.00,CLR,FEW,0.00,WeatherDisplay:10.37,2013-02-02 17:16:00,
2013-02-02 11:21:00,66.0,54.3,30.15,NE,45,2.3,2.3,66,0.00,CLR,FEW,0.00,WeatherDisplay:10.37,2013-02-02 17:21:00,
2013-02-02 11:26:00,66.4,53.8,30.15,North,0,3.5,3.5,64,0.00,CLR,FEW,0.00,WeatherDisplay:10.37,2013-02-02 17:26:00,
2013-02-02 11:31:00,66.6,54.0,30.15,North,0,1.6,1.6,64,0.00,CLR,FEW,0.00,WeatherDisplay:10.37,2013-02-02 17:31:00,
2013-02-02 11:36:00,66.7,53.7,30.14,North,0,2.3,2.3,63,0.00,CLR,FEW,0.00,WeatherDisplay:10.37,2013-02-02 17:36:00,
2013-02-02 11:41:00,67.1,54.1,30.14,North,0,2.3,2.3,63,0.00,CLR,FEW,0.00,WeatherDisplay:10.37,2013-02-02 17:41:00,
2013-02-02 11:46:00,67.3,54.3,30.14,North,0,2.3,2.3,63,0.00,CLR,FEW,0.00,WeatherDisplay:10.37,2013-02-02 17:46:00,
2013-02-02 11:51:00,67.6,54.2,30.15,NW,315,3.5,3.5,62,0.00,CLR,FEW,0.00,WeatherDisplay:10.37,2013-02-02 17:51:00,
2013-02-02 11:56:00,68.0,54.0,30.14,West,270,3.5,3.5,61,0.00,CLR,FEW,0.00,WeatherDisplay:10.37,2013-02-02 17:56:00,
2013-02-02 12:01:00,68.4,53.9,30.14,SW,225,4.6,4.6,60,0.00,CLR,FEW,0.00,WeatherDisplay:10.37,2013-02-02 18:01:00,
2013-02-02 12:06:00,68.7,53.8,30.14,SW,225,4.6,4.6,59,0.00,CLR,FEW,0.00,WeatherDisplay:10.37,2013-02-02 18:06:00,
2013-02-02 12:11:00,68.9,53.5,30.13,West,270,5.8,5.8,58,0.00,CLR,FEW,0.00,WeatherDisplay:10.37,2013-02-02 18:11:00,
2013-02-02 12:16:00,69.1,53.2,30.13,West,270,2.3,2.3,57,0.00,CLR,FEW,0.00,WeatherDisplay:10.37,2013-02-02 18:16:00,
2013-02-02 12:21:00,69.3,52.9,30.13,West,270,3.1,3.1,56,0.00,CLR,FEW,0.00,WeatherDisplay:10.37,2013-02-02 18:21:00,
2013-02-02 12:26:00,69.4,52.6,30.13,West,270,1.2,1.6,55,0.00,CLR,FEW,0.00,WeatherDisplay:10.37,2013-02-02 18:26:00,
2013-02-02 12:31:00,69.4,52.6,30.13,North,0,3.5,3.5,55,0.00,CLR,FEW,0.00,WeatherDisplay:10.37,2013-02-02 18:31:00,
2013-02-02 12:36:00,69.4,53.5,30.12,NW,315,2.3,2.3,57,0.00,CLR,FEW,0.00,WeatherDisplay:10.37,2013-02-02 18:36:00,
2013-02-02 12:41:00,69.4,53.1,30.13,West,270,3.5,3.5,56,0.00,CLR,FEW,0.00,WeatherDisplay:10.37,2013-02-02 18:41:00,
2013-02-02 12:46:00,69.6,52.7,30.13,NW,315,3.5,3.5,55,0.00,CLR,FEW,0.00,WeatherDisplay:10.37,2013-02-02 18:46:00,
2013-02-02 12:51:00,70.0,53.1,30.12,North,0,6.0,6.0,55,0.00,CLR,FEW,0.00,WeatherDisplay:10.37,2013-02-02 18:51:00,
2013-02-02 12:56:00,70.2,52.7,30.12,NW,315,3.5,3.5,54,0.00,CLR,FEW,0.00,WeatherDisplay:10.37,2013-02-02 18:56:00,
2013-02-02 13:01:00,70.3,52.9,30.12,North,0,4.6,4.6,54,0.00,CLR,FEW,0.00,WeatherDisplay:10.37,2013-02-02 19:01:00,
2013-02-02 13:06:00,70.5,53.1,30.12,NW,315,2.3,2.3,54,0.00,CLR,FEW,0.00,WeatherDisplay:10.37,2013-02-02 19:06:00,
2013-02-02 13:11:00,70.7,53.7,30.12,South,180,5.8,5.8,55,0.00,CLR,FEW,0.00,WeatherDisplay:10.37,2013-02-02 19:11:00,
2013-02-02 13:16:00,71.6,54.1,30.12,North,0,10.4,10.4,54,0.00,CLR,FEW,0.00,WeatherDisplay:10.37,2013-02-02 19:16:00,
2013-02-02 13:21:00,70.9,53.9,30.12,North,0,9.2,9.2,55,0.00,CLR,FEW,0.00,WeatherDisplay:10.37,2013-02-02 19:21:00,
2013-02-02 13:26:00,70.0,53.6,30.11,NW,315,8.3,8.3,56,0.00,CLR,FEW,0.00,WeatherDisplay:10.37,2013-02-02 19:26:00,
2013-02-02 13:31:00,69.8,52.4,30.11,NNE,22,6.9,6.9,54,0.00,CLR,FEW,0.00,WeatherDisplay:10.37,2013-02-02 19:31:00,
2013-02-02 13:36:00,70.3,52.4,30.11,NE,45,8.1,8.1,53,0.00,CLR,FEW,0.00,WeatherDisplay:10.37,2013-02-02 19:36:00,
2013-02-02 13:41:00,70.5,52.6,30.11,NW,315,4.6,4.6,53,0.00,CLR,FEW,0.00,WeatherDisplay:10.37,2013-02-02 19:41:00,
2013-02-02 13:46:00,70.5,52.6,30.11,NW,315,7.6,7.6,53,0.00,CLR,FEW,0.00,WeatherDisplay:10.37,2013-02-02 19:46:00,
2013-02-02 13:51:00,70.3,52.4,30.11,NW,315,5.8,5.8,53,0.00,CLR,FEW,0.00,WeatherDisplay:10.37,2013-02-02 19:51:00,
2013-02-02 13:56:00,70.5,51.5,30.10,West,270,6.9,6.9,51,0.00,CLR,FEW,0.00,WeatherDisplay:10.37,2013-02-02 19:56:00,
2013-02-02 14:01:00,70.5,51.5,30.11,NW,315,3.5,3.5,51,0.00,CLR,FEW,0.00,WeatherDisplay:10.37,2013-02-02 20:01:00,
2013-02-02 14:06:00,70.9,51.8,30.10,NW,315,6.0,6.0,51,0.00,CLR,FEW,0.00,WeatherDisplay:10.37,2013-02-02 20:06:00,
2013-02-02 14:11:00,70.7,51.1,30.10,West,270,5.8,5.8,50,0.00,CLR,FEW,0.00,WeatherDisplay:10.37,2013-02-02 20:11:00,
2013-02-02 14:16:00,70.7,51.1,30.10,NW,315,5.8,5.8,50,0.00,CLR,FEW,0.00,WeatherDisplay:10.37,2013-02-02 20:16:00,
2013-02-02 14:21:00,71.1,51.5,30.10,North,0,3.5,3.5,50,0.00,CLR,FEW,0.00,WeatherDisplay:10.37,2013-02-02 20:21:00,
2013-02-02 14:26:00,71.4,51.8,30.10,NW,315,5.8,5.8,50,0.00,CLR,FEW,0.00,WeatherDisplay:10.37,2013-02-02 20:26:00,
2013-02-02 14:31:00,71.4,51.3,30.10,North,0,2.3,2.3,49,0.00,CLR,FEW,0.00,WeatherDisplay:10.37,2013-02-02 20:31:00,
2013-02-02 14:36:00,71.8,51.6,30.10,NW,315,3.8,3.8,49,0.00,CLR,FEW,0.00,WeatherDisplay:10.37,2013-02-02 20:36:00,
2013-02-02 14:41:00,71.8,51.6,30.10,NW,315,1.2,1.2,49,0.00,CLR,FEW,0.00,WeatherDisplay:10.37,2013-02-02 20:41:00,
2013-02-02 14:46:00,71.8,51.6,30.10,NW,315,4.5,4.5,49,0.00,CLR,FEW,0.00,WeatherDisplay:10.37,2013-02-02 20:46:00,
2013-02-02 14:51:00,72.0,51.2,30.10,NE,45,5.8,5.8,48,0.00,CLR,FEW,0.00,WeatherDisplay:10.37,2013-02-02 20:51:00,
2013-02-02 14:56:00,72.1,50.2,30.10,NW,315,5.8,5.8,46,0.00,CLR,FEW,0.00,WeatherDisplay:10.37,2013-02-02 20:56:00,
2013-02-02 15:01:00,72.3,51.0,30.10,NW,315,3.5,3.5,47,0.00,CLR,FEW,0.00,WeatherDisplay:10.37,2013-02-02 21:01:00,
2013-02-02 15:06:00,72.3,51.0,30.10,West,270,3.5,3.5,47,0.00,CLR,FEW,0.00,WeatherDisplay:10.37,2013-02-02 21:06:00,
2013-02-02 15:11:00,72.5,50.5,30.10,NE,45,2.3,2.3,46,0.00,CLR,FEW,0.00,WeatherDisplay:10.37,2013-02-02 21:11:00,
2013-02-02 15:16:00,72.5,49.9,30.10,NW,315,5.8,5.8,45,0.00,CLR,FEW,0.00,WeatherDisplay:10.37,2013-02-02 21:16:00,
2013-02-02 15:21:00,72.3,51.0,30.09,NW,315,6.0,6.0,47,0.00,CLR,FEW,0.00,WeatherDisplay:10.37,2013-02-02 21:21:00,
2013-02-02 15:26:00,72.1,50.8,30.10,West,270,4.6,4.6,47,0.00,CLR,FEW,0.00,WeatherDisplay:10.37,2013-02-02 21:26:00,
2013-02-02 15:31:00,72.1,50.8,30.09,NW,315,4.6,4.6,47,0.00,CLR,FEW,0.00,WeatherDisplay:10.37,2013-02-02 21:31:00,
2013-02-02 15:36:00,72.1,50.2,30.09,NW,315,3.8,3.8,46,0.00,CLR,FEW,0.00,WeatherDisplay:10.37,2013-02-02 21:36:00,
2013-02-02 15:41:00,72.1,50.2,30.09,NW,315,3.5,3.5,46,0.00,CLR,FEW,0.00,WeatherDisplay:10.37,2013-02-02 21:41:00,
2013-02-02 15:46:00,72.5,49.9,30.09,NW,315,5.4,5.4,45,0.00,CLR,FEW,0.00,WeatherDisplay:10.37,2013-02-02 21:46:00,
2013-02-02 15:51:00,72.3,50.4,30.09,NW,315,6.9,6.9,46,0.00,CLR,FEW,0.00,WeatherDisplay:10.37,2013-02-02 21:51:00,
2013-02-02 15:56:00,72.1,49.6,30.09,NW,315,8.1,8.1,45,0.00,CLR,FEW,0.00,WeatherDisplay:10.37,2013-02-02 21:56:00,
2013-02-02 16:01:00,72.1,50.2,30.09,NW,315,9.8,9.8,46,0.00,CLR,FEW,0.00,WeatherDisplay:10.37,2013-02-02 22:01:00,
2013-02-02 16:06:00,72.0,48.9,30.09,NW,315,10.4,10.4,44,0.00,CLR,FEW,0.00,WeatherDisplay:10.37,2013-02-02 22:06:00,
2013-02-02 16:11:00,72.0,49.5,30.09,NW,315,8.3,8.3,45,0.00,CLR,FEW,0.00,WeatherDisplay:10.37,2013-02-02 22:11:00,
2013-02-02 16:16:00,72.0,50.0,30.09,NW,315,5.8,5.8,46,0.00,CLR,FEW,0.00,WeatherDisplay:10.37,2013-02-02 22:16:00,
2013-02-02 16:21:00,71.8,50.5,30.09,North,0,7.6,7.6,47,0.00,CLR,FEW,0.00,WeatherDisplay:10.37,2013-02-02 22:21:00,
2013-02-02 16:26:00,71.8,49.9,30.09,NW,315,8.1,8.1,46,0.00,CLR,FEW,0.00,WeatherDisplay:10.37,2013-02-02 22:26:00,
2013-02-02 16:31:00,71.8,49.9,30.09,WNW,292,9.2,9.2,46,0.00,CLR,FEW,0.00,WeatherDisplay:10.37,2013-02-02 22:31:00,
2013-02-02 16:36:00,71.6,49.7,30.10,NW,315,8.1,8.1,46,0.00,CLR,FEW,0.00,WeatherDisplay:10.37,2013-02-02 22:36:00,
2013-02-02 16:41:00,71.6,49.1,30.10,NW,315,9.2,9.2,45,0.00,CLR,FEW,0.00,WeatherDisplay:10.37,2013-02-02 22:41:00,
2013-02-02 16:46:00,71.6,49.1,30.10,NW,315,5.8,5.8,45,0.00,CLR,FEW,0.00,WeatherDisplay:10.37,2013-02-02 22:46:00,
2013-02-02 16:51:00,71.6,49.1,30.10,NW,315,9.2,9.2,45,0.00,CLR,FEW,0.00,WeatherDisplay:10.37,2013-02-02 22:51:00,
2013-02-02 16:56:00,71.4,49.0,30.10,NW,315,6.9,6.9,45,0.00,CLR,FEW,0.00,WeatherDisplay:10.37,2013-02-02 22:56:00,
2013-02-02 17:01:00,71.2,48.8,30.10,NW,315,8.1,8.1,45,0.00,CLR,FEW,0.00,WeatherDisplay:10.37,2013-02-02 23:01:00,
2013-02-02 17:06:00,71.2,48.8,30.11,North,0,5.8,5.8,45,0.00,CLR,FEW,0.00,WeatherDisplay:10.37,2013-02-02 23:06:00,
2013-02-02 17:11:00,71.6,49.1,30.10,NW,315,6.9,6.9,45,0.00,CLR,FEW,0.00,WeatherDisplay:10.37,2013-02-02 23:11:00,
2013-02-02 17:17:00,71.4,49.6,30.10,NNW,338,6.9,6.9,46,0.00,CLR,FEW,0.00,WeatherDisplay:10.37,2013-02-02 23:17:00,
2013-02-02 17:22:00,71.4,49.0,30.11,NW,315,8.1,8.1,45,0.00,CLR,FEW,0.00,WeatherDisplay:10.37,2013-02-02 23:22:00,
2013-02-02 17:27:00,71.4,47.7,30.11,NW,315,5.8,5.8,43,0.00,CLR,FEW,0.00,WeatherDisplay:10.37,2013-02-02 23:27:00,
2013-02-02 17:32:00,71.4,49.0,30.11,NW,315,5.8,5.8,45,0.00,CLR,FEW,0.00,WeatherDisplay:10.37,2013-02-02 23:32:00,
2013-02-02 17:37:00,70.9,48.5,30.11,NW,315,5.8,5.8,45,0.00,CLR,FEW,0.00,WeatherDisplay:10.37,2013-02-02 23:37:00,
2013-02-02 17:42:00,70.9,48.5,30.12,North,0,7.6,7.6,45,0.00,CLR,FEW,0.00,WeatherDisplay:10.37,2013-02-02 23:42:00,
2013-02-02 17:47:00,70.7,49.5,30.12,NW,315,3.5,3.5,47,0.00,CLR,FEW,0.00,WeatherDisplay:10.37,2013-02-02 23:47:00,
2013-02-02 17:52:00,70.3,49.1,30.11,North,0,2.2,2.2,47,0.00,CLR,FEW,0.00,WeatherDisplay:10.37,2013-02-02 23:52:00,
2013-02-02 17:57:00,70.3,48.6,30.12,NNE,22,3.5,3.5,46,0.00,CLR,FEW,0.00,WeatherDisplay:10.37,2013-02-02 23:57:00,
2013-02-02 18:02:00,70.2,48.4,30.12,North,0,3.5,3.5,46,0.00,CLR,FEW,0.00,WeatherDisplay:10.37,2013-02-03 00:02:00,
2013-02-02 18:07:00,70.0,48.2,30.12,North,0,1.2,1.2,46,0.00,CLR,FEW,0.00,WeatherDisplay:10.37,2013-02-03 00:07:00,
2013-02-02 18:12:00,69.8,48.7,30.12,NE,45,4.6,4.6,47,0.00,CLR,FEW,0.00,WeatherDisplay:10.37,2013-02-03 00:12:00,
2013-02-02 18:17:00,69.4,48.3,30.12,North,0,3.5,0.0,47,0.00,CLR,FEW,0.00,WeatherDisplay:10.37,2013-02-03 00:17:00,
2013-02-02 18:22:00,69.1,48.6,30.13,North,0,4.6,4.6,48,0.00,CLR,FEW,0.00,WeatherDisplay:10.37,2013-02-03 00:22:00,
2013-02-02 18:27:00,68.7,48.8,30.13,NE,45,3.5,3.5,49,0.00,CLR,FEW,0.00,WeatherDisplay:10.37,2013-02-03 00:27:00,
2013-02-02 18:32:00,68.4,48.5,30.13,North,0,5.8,5.8,49,0.00,CLR,FEW,0.00,WeatherDisplay:10.37,2013-02-03 00:32:00,
2013-02-02 18:37:00,68.2,48.3,30.13,North,0,2.3,0.0,49,0.00,CLR,FEW,0.00,WeatherDisplay:10.37,2013-02-03 00:37:00,
2013-02-02 18:42:00,67.6,48.3,30.13,North,0,1.6,1.6,50,0.00,CLR,FEW,0.00,WeatherDisplay:10.37,2013-02-03 00:42:00,
2013-02-02 18:47:00,67.1,47.8,30.14,North,0,1.2,0.0,50,0.00,CLR,FEW,0.00,WeatherDisplay:10.37,2013-02-03 00:47:00,
2013-02-02 18:52:00,66.6,47.9,30.14,North,0,1.2,0.0,51,0.00,CLR,FEW,0.00,WeatherDisplay:10.37,2013-02-03 00:52:00,
2013-02-02 18:57:00,66.0,47.9,30.14,North,0,1.2,0.0,52,0.00,CLR,FEW,0.00,WeatherDisplay:10.37,2013-02-03 00:57:00,
2013-02-02 19:02:00,65.3,47.2,30.14,North,0,0.0,0.0,52,0.00,CLR,FEW,0.00,WeatherDisplay:10.37,2013-02-03 01:02:00,
2013-02-02 19:07:00,64.9,47.4,30.15,North,0,0.0,0.0,53,0.00,CLR,FEW,0.00,WeatherDisplay:10.37,2013-02-03 01:07:00,
2013-02-02 19:12:00,64.4,47.4,30.15,North,0,0.0,0.0,54,0.00,CLR,FEW,0.00,WeatherDisplay:10.37,2013-02-03 01:12:00,
2013-02-02 19:17:00,63.9,47.4,30.15,North,0,1.2,1.2,55,0.00,CLR,FEW,0.00,WeatherDisplay:10.37,2013-02-03 01:17:00,
2013-02-02 19:22:00,63.3,47.3,30.15,North,0,0.0,0.0,56,0.00,CLR,FEW,0.00,WeatherDisplay:10.37,2013-02-03 01:22:00,
2013-02-02 19:27:00,63.0,47.5,30.15,North,0,0.0,0.0,57,0.00,CLR,FEW,0.00,WeatherDisplay:10.37,2013-02-03 01:27:00,
2013-02-02 19:32:00,62.4,47.4,30.15,North,0,1.2,0.0,58,0.00,CLR,FEW,0.00,WeatherDisplay:10.37,2013-02-03 01:32:00,
2013-02-02 19:37:00,61.9,46.9,30.16,North,0,0.0,0.0,58,0.00,CLR,FEW,0.00,WeatherDisplay:10.37,2013-02-03 01:37:00,
2013-02-02 19:42:00,61.5,47.1,30.16,North,0,0.0,0.0,59,0.00,CLR,FEW,0.00,WeatherDisplay:10.37,2013-02-03 01:42:00,
2013-02-02 19:47:00,61.3,47.3,30.16,North,0,0.0,0.0,60,0.00,CLR,FEW,0.00,WeatherDisplay:10.37,2013-02-03 01:47:00,
2013-02-02 19:52:00,61.0,47.4,30.16,North,0,1.6,1.6,61,0.00,CLR,FEW,0.00,WeatherDisplay:10.37,2013-02-03 01:52:00,
2013-02-02 19:57:00,60.6,47.1,30.17,North,0,1.2,0.0,61,0.00,CLR,FEW,0.00,WeatherDisplay:10.37,2013-02-03 01:57:00,
2013-02-02 20:02:00,60.3,47.2,30.17,North,0,1.6,1.6,62,0.00,CLR,FEW,0.00,WeatherDisplay:10.37,2013-02-03 02:02:00,
2013-02-02 20:07:00,60.1,47.0,30.17,North,0,0.0,0.0,62,0.00,CLR,FEW,0.00,WeatherDisplay:10.37,2013-02-03 02:07:00,
2013-02-02 20:12:00,59.7,47.1,30.17,North,0,0.0,0.0,63,0.00,CLR,FEW,0.00,WeatherDisplay:10.37,2013-02-03 02:12:00,
2013-02-02 20:17:00,59.5,46.9,30.18,North,0,0.0,0.0,63,0.00,CLR,FEW,0.00,WeatherDisplay:10.37,2013-02-03 02:17:00,
2013-02-02 20:22:00,59.2,47.0,30.18,North,0,0.0,0.0,64,0.00,CLR,FEW,0.00,WeatherDisplay:10.37,2013-02-03 02:22:00,
2013-02-02 20:27:00,58.8,47.1,30.18,North,0,0.0,0.0,65,0.00,CLR,FEW,0.00,WeatherDisplay:10.37,2013-02-03 02:27:00,
2013-02-02 20:32:00,58.6,47.3,30.18,North,0,1.6,1.6,66,0.00,CLR,FEW,0.00,WeatherDisplay:10.37,2013-02-03 02:32:00,
2013-02-02 20:37:00,58.5,47.5,30.19,North,0,1.2,1.2,67,0.00,CLR,FEW,0.00,WeatherDisplay:10.37,2013-02-03 02:37:00,
2013-02-02 20:42:00,58.3,47.4,30.19,North,0,1.6,0.0,67,0.00,CLR,FEW,0.00,WeatherDisplay:10.37,2013-02-03 02:42:00,
2013-02-02 20:47:00,58.1,47.2,30.19,North,0,1.2,0.0,67,0.00,CLR,FEW,0.00,WeatherDisplay:10.37,2013-02-03 02:47:00,
2013-02-02 20:52:00,57.9,46.6,30.19,North,0,1.6,1.6,66,0.00,CLR,FEW,0.00,WeatherDisplay:10.37,2013-02-03 02:52:00,
2013-02-02 20:57:00,57.7,46.5,30.20,North,0,1.2,0.0,66,0.00,CLR,FEW,0.00,WeatherDisplay:10.37,2013-02-03 02:57:00,
2013-02-02 21:02:00,57.6,46.3,30.20,North,0,1.6,1.6,66,0.00,CLR,FEW,0.00,WeatherDisplay:10.37,2013-02-03 03:02:00,
2013-02-02 21:07:00,57.4,46.1,30.20,North,0,1.2,0.0,66,0.00,CLR,FEW,0.00,WeatherDisplay:10.37,2013-02-03 03:07:00,
2013-02-02 21:12:00,57.4,46.1,30.20,North,0,0.0,0.0,66,0.00,CLR,FEW,0.00,WeatherDisplay:10.37,2013-02-03 03:12:00,
2013-02-02 21:17:00,57.2,46.3,30.20,North,0,1.2,0.0,67,0.00,CLR,FEW,0.00,WeatherDisplay:10.37,2013-02-03 03:17:00,
2013-02-02 21:22:00,57.0,46.9,30.21,North,0,1.6,1.6,69,0.00,CLR,FEW,0.00,WeatherDisplay:10.37,2013-02-03 03:22:00,
2013-02-02 21:27:00,57.0,46.9,30.21,North,0,0.0,0.0,69,0.00,CLR,FEW,0.00,WeatherDisplay:10.37,2013-02-03 03:27:00,
2013-02-02 21:32:00,56.8,47.2,30.21,North,0,0.0,0.0,70,0.00,CLR,FEW,0.00,WeatherDisplay:10.37,2013-02-03 03:32:00,
2013-02-02 21:37:00,56.8,47.5,30.21,North,0,1.2,0.0,71,0.00,CLR,FEW,0.00,WeatherDisplay:10.37,2013-02-03 03:37:00,
2013-02-02 21:42:00,56.7,47.4,30.20,North,0,2.3,2.3,71,0.00,CLR,FEW,0.00,WeatherDisplay:10.37,2013-02-03 03:42:00,
2013-02-02 21:47:00,56.7,47.4,30.21,North,0,1.2,1.2,71,0.00,CLR,FEW,0.00,WeatherDisplay:10.37,2013-02-03 03:47:00,
2013-02-02 21:52:00,56.5,46.4,30.21,North,0,1.2,0.0,69,0.00,CLR,FEW,0.00,WeatherDisplay:10.37,2013-02-03 03:52:00,
2013-02-02 21:57:00,56.5,45.7,30.21,North,0,0.0,0.0,67,0.00,CLR,FEW,0.00,WeatherDisplay:10.37,2013-02-03 03:57:00,
2013-02-02 22:02:00,56.5,45.3,30.21,North,0,1.2,0.0,66,0.00,CLR,FEW,0.00,WeatherDisplay:10.37,2013-02-03 04:02:00,
2013-02-02 22:07:00,56.3,45.1,30.21,North,0,0.0,0.0,66,0.00,CLR,FEW,0.00,WeatherDisplay:10.37,2013-02-03 04:07:00,
2013-02-02 22:12:00,56.1,44.9,30.21,North,0,1.2,0.0,66,0.00,CLR,FEW,0.00,WeatherDisplay:10.37,2013-02-03 04:12:00,
2013-02-02 22:17:00,55.9,45.1,30.21,North,0,0.0,0.0,67,0.00,CLR,FEW,0.00,WeatherDisplay:10.37,2013-02-03 04:17:00,
2013-02-02 22:23:00,55.9,45.5,30.22,North,0,1.6,1.6,68,0.00,CLR,FEW,0.00,WeatherDisplay:10.37,2013-02-03 04:23:00,
2013-02-02 22:28:00,55.8,45.4,30.22,North,0,1.6,1.6,68,0.00,CLR,FEW,0.00,WeatherDisplay:10.37,2013-02-03 04:28:00,
2013-02-02 22:33:00,55.4,45.0,30.21,North,0,1.2,0.0,68,0.00,CLR,FEW,0.00,WeatherDisplay:10.37,2013-02-03 04:33:00,
2013-02-02 22:38:00,55.0,44.3,30.22,North,0,1.2,0.0,67,0.00,CLR,FEW,0.00,WeatherDisplay:10.37,2013-02-03 04:38:00,
2013-02-02 22:43:00,54.9,44.1,30.22,North,0,1.2,0.0,67,0.00,CLR,FEW,0.00,WeatherDisplay:10.37,2013-02-03 04:43:00,
2013-02-02 22:48:00,54.7,43.9,30.22,North,0,1.2,0.0,67,0.00,CLR,FEW,0.00,WeatherDisplay:10.37,2013-02-03 04:48:00,
2013-02-02 22:53:00,54.5,43.8,30.22,North,0,1.2,1.2,67,0.00,CLR,FEW,0.00,WeatherDisplay:10.37,2013-02-03 04:53:00,
2013-02-02 22:58:00,54.3,43.6,30.22,NNE,22,1.6,1.6,67,0.00,CLR,FEW,0.00,WeatherDisplay:10.37,2013-02-03 04:58:00,
2013-02-02 23:01:00,54.3,43.2,30.22,NNE,22,1.6,1.6,66,0.00,CLR,FEW,0.00,WeatherDisplay:10.37,2013-02-03 05:01:00,
2013-02-02 23:02:00,54.3,42.8,30.22,NNE,22,1.6,1.6,65,0.00,CLR,FEW,0.00,WeatherDisplay:10.37,2013-02-03 05:02:00,
2013-02-02 23:03:00,54.3,42.8,30.22,NNE,22,1.6,1.6,65,0.00,CLR,FEW,0.00,WeatherDisplay:10.37,2013-02-03 05:03:00,
2013-02-02 23:05:00,54.3,42.4,30.22,NNE,22,2.3,2.3,64,0.00,CLR,FEW,0.00,WeatherDisplay:10.37,2013-02-03 05:05:00,
2013-02-02 23:10:00,54.0,42.5,30.23,NNE,22,0.0,0.0,65,0.00,CLR,FEW,0.00,WeatherDisplay:10.37,2013-02-03 05:10:00,
2013-02-02 23:15:00,53.8,41.9,30.23,NNE,22,0.0,0.0,64,0.00,CLR,FEW,0.00,WeatherDisplay:10.37,2013-02-03 05:15:00,
2013-02-02 23:20:00,53.6,41.3,30.23,NNE,22,1.2,0.0,63,0.00,CLR,FEW,0.00,WeatherDisplay:10.37,2013-02-03 05:20:00,
2013-02-02 23:25:00,53.6,41.7,30.23,NNE,22,0.0,0.0,64,0.00,CLR,FEW,0.00,WeatherDisplay:10.37,2013-02-03 05:25:00,
2013-02-02 23:30:00,53.6,41.7,30.23,NNE,22,0.0,0.0,64,0.00,CLR,FEW,0.00,WeatherDisplay:10.37,2013-02-03 05:30:00,
2013-02-02 23:35:00,53.6,42.1,30.23,NNE,22,0.0,0.0,65,0.00,CLR,FEW,0.00,WeatherDisplay:10.37,2013-02-03 05:35:00,
2013-02-02 23:40:00,53.8,43.1,30.23,NNE,22,0.0,0.0,67,0.00,CLR,FEW,0.00,WeatherDisplay:10.37,2013-02-03 05:40:00,
2013-02-02 23:45:00,53.8,43.5,30.23,NNE,22,1.2,0.0,68,0.00,CLR,FEW,0.00,WeatherDisplay:10.37,2013-02-03 05:45:00,
2013-02-02 23:50:00,53.8,43.5,30.23,NNE,22,0.0,0.0,68,0.00,CLR,FEW,0.00,WeatherDisplay:10.37,2013-02-03 05:50:00,
2013-02-02 23:55:00,53.8,43.8,30.23,NNE,22,0.0,0.0,69,0.00,CLR,FEW,0.00,WeatherDisplay:10.37,2013-02-03 05:55:00,